Retour au catalogue

STARLINK-1274

ActifCommunicationsVLEO
NORAD 45387·PAYLOAD·🇺🇸 United States

Lancé Mar 18, 2020 depuis Cape Canaveral Space Force Station

Loading…

Prochains Passages (prochaines 24 heures)

TLE

FraisSource: CelesTrak SupGP

Époque: Sep 15, 2026, 02:27 UTC

1 45387C 20019AD  26258.10256944  .00176240  00000+0  72039-3 0  2584
2 45387  53.0089 254.2876 0007436  61.0930  56.8413 15.85240288    18

Suivez STARLINK-1274 en temps réel avec AllMySat

Download on the App Store